User: anonymous   Login
Location: Theydon Bois
(51.6750°N, 0.1050°E)
Time: 15:51:39
(UTC+00:00)
Language:

SKYMED 2 - Orbit

View from above orbital plane
View from above orbital plane
View from above satellite
View from above satellite

Ground track
Ground track

The orbit data is extracted from the following two-line orbital elements,

1 32376U 07059A   18056.16937008 -.00000015  00000-0  46280-5 0  9998
2 32376  97.8896 241.2740 0001405  87.6492 272.4842 14.82148932552661
Epoch (UTC): 25 February 2018 04:03:53
Eccentricity: 0.0001405
inclination: 97.8896°
perigee height: 621 km
apogee height: 623 km
right ascension of ascending node: 241.2740°
argument of perigee: 87.6492°
revolutions per day: 14.82148932
mean anomaly at epoch: 272.4842°
orbit number at epoch: 55266

The dashed part of the orbit path shows where the satellite is in the earth's shadow,  

DLR